Regional Weather Roundup
Issued by NWS Cleveland, OH

Home | Current Version | Previous Version | Text Only | Print | Product List | Glossary Off
Versions: 1 2 3 4 5 6 7 8 9 10 11 12 13 14 15 16 17 18 19 20 21 22 23 24 25 26 27 28 29 30 31 32 33 34 35 36 37 38 39 40 41 42 43 44 45 46 47 48 49 50

000
ASUS41 KCLE 281600
RWRCLE
OHIO REGIONAL WEATHER ROUNDUP
NATIONAL WEATHER SERVICE WILMINGTON, OH
1100 AM EST FRI NOV 28 2014

NOTE: "FAIR" INDICATES FEW OR NO CLOUDS BELOW 12,000 FEET WITH NO
SIGNIFICANT WEATHER AND/OR OBSTRUCTIONS TO VISIBILITY.

OHZ001>008-015>018-024>027-034-035-043-044-281700-
   NORTHWEST OHIO

CITY           SKY/WX    TMP DP  RH WIND       PRES   REMARKS
DEFIANCE       CLOUDY    26  15  63 S8        30.33F WCI  18
FINDLAY        CLOUDY    27  15  61 S10       30.32F WCI  17
TOLEDO EXPRESS PTSUNNY   24  16  71 S5        30.33F WCI  18
TOLEDO METCALF PTSUNNY   24  15  68 S7        30.35F WCI  16
LIMA           CLOUDY    27  16  63 S9        30.32F WCI  18
$$

OHZ009>014-019>023-028>033-038-089-281700-
   NORTHEAST OHIO

CITY           SKY/WX    TMP DP  RH WIND       PRES   REMARKS
CLE-HOPKINS    CLOUDY    24  15  68 W9        30.37F WCI  14
CLE-LAKEFRONT  CLOUDY    24  16  71 SW10      30.35S WCI  14
CUY CO. ARPT   CLOUDY    25  18  74 SW16      30.34S WCI  12
LORAIN-ELYRIA  CLOUDY    22  12  65 SW6       30.35F WCI  14
ASHTABULA      CLOUDY    25  14  63 W9        30.32S WCI  15
AKRON-CANTON   CLOUDY    24  14  65 W7        30.33S WCI  16
WOOSTER        NOT AVBL
MANSFIELD      CLOUDY    24  17  74 S7        30.31F WCI  16
YOUNGSTOWN     FLURRIES  23  15  71 W12       30.32R WCI  12
$$

OHZ042-051>053-060>062-070>072-077>081-281700-
  SOUTHWEST OHIO

CITY           SKY/WX    TMP DP  RH WIND       PRES   REMARKS
CINC-COVINGTON CLOUDY    30  17  58 S10       30.37S WCI  21
CINC-LUNKEN    PTSUNNY   31  19  61 S10       30.41S WCI  22
HAMILTON       PTSUNNY   32  19  58 S9        30.39S WCI  24
DAYTON         NOT AVBL
WRIGHT-PAT AFB CLOUDY    27  16  63 S8        30.35F WCI  19
DAYTON GENERAL CLOUDY    27  18  69 S8        30.35S WCI  19
WILMINGTON     CLOUDY    27  17  66 S9        30.35F WCI  18
$$

OHZ036-037-039>041-045>050-054>059-063>069-073>076-082>088-281700-
  CENTRAL AND SOUTHEAST OHIO

CITY           SKY/WX    TMP DP  RH WIND       PRES   REMARKS
COLUMBUS       PTSUNNY   27  16  63 W5        30.36F WCI  22
OSU AIRPORT    CLOUDY    26  16  65 VRB5      30.35F WCI  20
BOLTON FIELD   CLOUDY    27  16  63 CALM      30.36F
RICKENBACK AFB NOT AVBL
NEWARK         PTSUNNY   27  16  63 W10       30.35F WCI  17
MARION         CLOUDY    25  17  72 SW7       30.33F WCI  17
LANCASTER      CLOUDY    29  17  61 W6        30.38F WCI  23
ZANESVILLE     PTSUNNY   27  17  66 SW9       30.37S WCI  18
NEW PHILLY     PTSUNNY   25  15  66 W5        30.37F WCI  19
$$


USA.gov is the U.S. government's official web portal to all federal, state and local government web resources and services.